Погода в Лонгсюене

Вьетнам     10°21′53″N   105°26′54″E
темп.,
°C
ветер,
м/с
пор.,
м/с
влажн.,
%
обл.,
%
осадки,
мм/ч
давл.,
гПа
погр.,
м
25 февраля, чт
чт2501:00+22ююв35801 0.0 1010131
04:00+21юв348536 0.0 1009119
07:00+22юв348560 0.0 1011155
10:00+29ююз226467 0.0 1011807
13:00+34сз234559 0.0 10081673
16:00+32зюз665767 0.0 1005726
19:00+26зюз488183 0.0 1007222
22:00+25ююз498692 0.0 1008348
26 февраля, пт
пт2601:00+23ююв239372 0.0 100856
04:00+23ююв3396100 0.0 100682
07:00+23юв3592100 0.0 1009207
10:00+30ю336287 0.0 1010904
13:00+35зюз434246 0.0 10071910
16:00+32зюз674926 0.0 1004727
19:00+26юз497213 0.0 1006309
22:00+24ююз35820 0.0 1008154
27 февраля, сб
сб2701:00+23ююв34930 0.0 100898
04:00+22юв35973 0.0 1007136
07:00+23юв46932 0.0 1009210
10:00+31юв33530 0.0 1010829
13:00+35вюв22410 0.0 10072007
16:00+35ю333940 0.0 10051432
19:00+27ююз487470 0.1 1008363
22:00+24ююв36790 0.0 1010172
28 февраля, вс
вс2801:00+23ююв22860 0.0 100943
04:00+22ююв22940 0.0 100834
07:00+24юв311890 0.0 1011637
10:00+31вюв795377 0.0 10121231
13:00+35вюв673946 0.0 10082004
16:00+34вюв663815 0.0 10072035
19:00+27юв5106024 0.0 1009498
22:00+24вюв5128177 0.0 1011580
1 марта, пн
пн101:00+24вюв4118362 0.0 1010571
04:00+22вюв288999 0.0 1009362
07:00+23вюв288589 0.0 1011457
10:00+31вюв575358 0.0 10131195
13:00+35вюв563776 0.0 10092111
16:00+33юв564399 0.0 10081550
19:00+28юв6116084 0.0 1010457
22:00+24юв28810 0.0 1012361